• In Deutschland
  • Länderverzeichnis
  • Für 7 Tage
  • Wassertemperatur
  • Satellitenkarten
  • Wetterkarte
  • Widgets
  • user-avatar
    Anmelden

    Stündliche Wetter Pforzheim

    Heute, 25 Juni, Montag

    Zeit Temperatur Niederschläge Wind Luftdruck Luftfeuchtigkeit
    00:00 +14°C° 0 mm 1 m/S 742 mmHg 81%
    01:00 +14°C° 0 mm 1 m/S 742 mmHg 83%
    02:00 +14°C° 0 mm 1 m/S 742 mmHg 85%
    03:00 +13°C° 0 mm 1 m/S 742 mmHg 87%
    04:00 +13°C° 0 mm 1 m/S 742 mmHg 89%
    05:00 +13°C° 0 mm 1 m/S 742 mmHg 87%
    06:00 +14°C° 0 mm 1 m/S 743 mmHg 85%
    07:00 +15°C° 0 mm 1 m/S 742 mmHg 83%
    08:00 +16°C° 0,1 mm 1 m/S 743 mmHg 79%
    09:00 +18°C° 0,1 mm 1 m/S 743 mmHg 75%
    10:00 +18°C° 0,1 mm 2 m/S 743 mmHg 71%
    11:00 +19°C° 0 mm 2 m/S 743 mmHg 66%
    12:00 +20°C° 0 mm 2 m/S 743 mmHg 62%
    13:00 +20°C° 0 mm 3 m/S 743 mmHg 58%
    14:00 +21°C° 0 mm 3 m/S 743 mmHg 57%
    15:00 +21°C° 0 mm 3 m/S 743 mmHg 55%
    16:00 +22°C° 0 mm 3 m/S 743 mmHg 54%
    17:00 +21°C° 0 mm 2 m/S 743 mmHg 58%
    18:00 +20°C° 0 mm 2 m/S 743 mmHg 63%
    19:00 +20°C° 0 mm 2 m/S 743 mmHg 67%
    20:00 +18°C° 0 mm 2 m/S 743 mmHg 73%
    21:00 +16°C° 0 mm 1 m/S 743 mmHg 79%
    22:00 +14°C° 0 mm 1 m/S 743 mmHg 84%
    23:00 +14°C° 0 mm 1 m/S 743 mmHg 86%

    Morgen, 26 Juni, Dienstag

    Zeit Temperatur Niederschläge Wind Luftdruck Luftfeuchtigkeit
    00:00 +13°C° 0 mm 0 m/S 744 mmHg 87%
    01:00 +12°C° 0 mm 0 m/S 744 mmHg 89%
    02:00 +12°C° 0 mm 0 m/S 743 mmHg 89%
    03:00 +12°C° 0 mm 0 m/S 743 mmHg 90%
    04:00 +11°C° 0 mm 0 m/S 743 mmHg 91%
    05:00 +13°C° 0 mm 0 m/S 743 mmHg 86%
    06:00 +14°C° 0 mm 0 m/S 743 mmHg 82%
    07:00 +16°C° 0 mm 0 m/S 743 mmHg 77%
    08:00 +19°C° 0 mm 1 m/S 743 mmHg 72%
    09:00 +21°C° 0 mm 1 m/S 743 mmHg 67%
    10:00 +21°C° 0 mm 2 m/S 743 mmHg 61%
    11:00 +23°C° 0 mm 2 m/S 743 mmHg 60%
    12:00 +23°C° 0 mm 2 m/S 743 mmHg 58%
    13:00 +24°C° 0 mm 2 m/S 743 mmHg 57%
    14:00 +24°C° 0 mm 2 m/S 743 mmHg 57%
    15:00 +24°C° 0 mm 3 m/S 743 mmHg 57%
    16:00 +25°C° 0 mm 3 m/S 743 mmHg 57%
    17:00 +24°C° 0 mm 2 m/S 743 mmHg 62%
    18:00 +23°C° 0 mm 2 m/S 743 mmHg 66%
    19:00 +21°C° 0 mm 2 m/S 743 mmHg 70%
    20:00 +20°C° 0 mm 2 m/S 743 mmHg 76%
    21:00 +18°C° 0 mm 2 m/S 743 mmHg 82%
    22:00 +16°C° 0 mm 2 m/S 743 mmHg 88%
    23:00 +16°C° 0 mm 1 m/S 743 mmHg 89%

    übermorgen, 27 Juni, Mittwoch

    Zeit Temperatur Niederschläge Wind Luftdruck Luftfeuchtigkeit
    00:00 +15°C° 0 mm 1 m/S 743 mmHg 91%
    01:00 +14°C° 0 mm 1 m/S 743 mmHg 92%
    02:00 +14°C° 0 mm 1 m/S 743 mmHg 92%
    03:00 +14°C° 0 mm 1 m/S 743 mmHg 93%
    04:00 +13°C° 0 mm 1 m/S 743 mmHg 93%
    05:00 +14°C° 0 mm 1 m/S 743 mmHg 89%
    06:00 +16°C° 0 mm 1 m/S 743 mmHg 85%
    07:00 +18°C° 0 mm 1 m/S 743 mmHg 81%
    08:00 +19°C° 0 mm 2 m/S 743 mmHg 75%
    09:00 +20°C° 0 mm 3 m/S 743 mmHg 69%
    10:00 +22°C° 0 mm 3 m/S 743 mmHg 63%
    11:00 +23°C° 0 mm 4 m/S 743 mmHg 58%
    12:00 +25°C° 0 mm 4 m/S 742 mmHg 54%
    13:00 +25°C° 0 mm 4 m/S 742 mmHg 50%
    14:00 +26°C° 0 mm 4 m/S 742 mmHg 48%
    15:00 +26°C° 0 mm 4 m/S 742 mmHg 47%
    16:00 +26°C° 0 mm 5 m/S 742 mmHg 45%
    17:00 +25°C° 0 mm 4 m/S 742 mmHg 51%
    18:00 +23°C° 0 mm 4 m/S 742 mmHg 56%
    19:00 +22°C° 0 mm 3 m/S 742 mmHg 62%
    20:00 +20°C° 0 mm 3 m/S 742 mmHg 65%
    21:00 +19°C° 0 mm 3 m/S 742 mmHg 68%
    22:00 +18°C° 0 mm 3 m/S 742 mmHg 72%
    23:00 +17°C° 0 mm 3 m/S 742 mmHg 75%

    28 Juni, Donnerstag

    Zeit Temperatur Niederschläge Wind Luftdruck Luftfeuchtigkeit
    00:00 +16°C° 0 mm 3 m/S 742 mmHg 79%
    01:00 +15°C° 0 mm 2 m/S 742 mmHg 82%
    02:00 +14°C° 0 mm 2 m/S 742 mmHg 84%
    03:00 +14°C° 0 mm 2 m/S 742 mmHg 87%
    04:00 +13°C° 0 mm 2 m/S 741 mmHg 89%
    05:00 +15°C° 0 mm 2 m/S 741 mmHg 85%
    06:00 +16°C° 0 mm 2 m/S 741 mmHg 81%
    07:00 +17°C° 0 mm 3 m/S 741 mmHg 77%
    08:00 +19°C° 0 mm 3 m/S 741 mmHg 71%
    09:00 +21°C° 0 mm 4 m/S 741 mmHg 64%
    10:00 +22°C° 0 mm 5 m/S 741 mmHg 58%
    11:00 +23°C° 0 mm 5 m/S 741 mmHg 56%
    12:00 +25°C° 0 mm 5 m/S 740 mmHg 54%
    13:00 +26°C° 0 mm 5 m/S 740 mmHg 53%
    14:00 +26°C° 0,1 mm 5 m/S 740 mmHg 53%
    15:00 +26°C° 0,1 mm 5 m/S 740 mmHg 54%
    16:00 +26°C° 0,1 mm 5 m/S 740 mmHg 55%
    17:00 +25°C° 0,1 mm 4 m/S 739 mmHg 61%
    18:00 +23°C° 0,1 mm 4 m/S 739 mmHg 68%
    19:00 +22°C° 0,1 mm 3 m/S 739 mmHg 74%
    20:00 +21°C° 0,1 mm 3 m/S 739 mmHg 77%
    21:00 +20°C° 0,1 mm 3 m/S 739 mmHg 81%
    22:00 +19°C° 0,1 mm 2 m/S 739 mmHg 84%
    23:00 +19°C° 0,1 mm 2 m/S 739 mmHg 86%

    29 Juni, Freitag

    Zeit Temperatur Niederschläge Wind Luftdruck Luftfeuchtigkeit
    00:00 +19°C° 0,1 mm 2 m/S 739 mmHg 87%
    01:00 +18°C° 0,1 mm 2 m/S 738 mmHg 89%
    02:00 +18°C° 0,1 mm 2 m/S 738 mmHg 90%
    03:00 +18°C° 0,1 mm 2 m/S 738 mmHg 90%
    04:00 +18°C° 0,1 mm 3 m/S 738 mmHg 91%
    05:00 +18°C° 0,1 mm 3 m/S 738 mmHg 90%
    06:00 +19°C° 0,1 mm 3 m/S 738 mmHg 89%
    07:00 +19°C° 0,1 mm 3 m/S 738 mmHg 88%
    08:00 +20°C° 0 mm 3 m/S 738 mmHg 84%
    09:00 +22°C° 0 mm 4 m/S 738 mmHg 80%
    10:00 +23°C° 0 mm 4 m/S 738 mmHg 76%
    11:00 +25°C° 0,3 mm 4 m/S 738 mmHg 74%
    12:00 +26°C° 0,3 mm 4 m/S 738 mmHg 72%
    13:00 +26°C° 0,3 mm 4 m/S 738 mmHg 71%
    14:00 +27°C° 0,5 mm 4 m/S 738 mmHg 70%
    15:00 +27°C° 0,5 mm 4 m/S 737 mmHg 70%
    16:00 +27°C° 0,5 mm 4 m/S 737 mmHg 70%
    17:00 +27°C° 0,1 mm 4 m/S 737 mmHg 72%
    18:00 +26°C° 0,1 mm 4 m/S 737 mmHg 74%
    19:00 +26°C° 0,1 mm 3 m/S 737 mmHg 76%
    20:00 +25°C° 0 mm 3 m/S 738 mmHg 80%
    21:00 +22°C° 0 mm 3 m/S 738 mmHg 84%
    22:00 +21°C° 0 mm 2 m/S 738 mmHg 88%
    23:00 +21°C° 0 mm 2 m/S 738 mmHg 90%

    30 Juni, Samstag

    Zeit Temperatur Niederschläge Wind Luftdruck Luftfeuchtigkeit
    00:00 +20°C° 0 mm 2 m/S 738 mmHg 91%
    01:00 +20°C° 0 mm 2 m/S 738 mmHg 93%
    02:00 +19°C° 0 mm 2 m/S 738 mmHg 93%
    03:00 +19°C° 0 mm 2 m/S 738 mmHg 94%
    04:00 +20°C° 0 mm 1 m/S 738 mmHg 95%
    05:00 +20°C° 0 mm 2 m/S 738 mmHg 92%
    06:00 +21°C° 0 mm 2 m/S 739 mmHg 89%
    07:00 +23°C° 0 mm 2 m/S 739 mmHg 86%
    08:00 +24°C° 0 mm 2 m/S 739 mmHg 79%
    09:00 +26°C° 0 mm 3 m/S 739 mmHg 72%
    10:00 +28°C° 0 mm 3 m/S 739 mmHg 65%
    11:00 +29°C° 0 mm 3 m/S 739 mmHg 61%
    12:00 +30°C° 0 mm 4 m/S 739 mmHg 57%
    13:00 +32°C° 0 mm 4 m/S 739 mmHg 53%
    14:00 +33°C° 0 mm 4 m/S 738 mmHg 53%
    15:00 +33°C° 0 mm 4 m/S 738 mmHg 53%
    16:00 +33°C° 0 mm 4 m/S 738 mmHg 53%
    17:00 +31°C° 0,1 mm 3 m/S 738 mmHg 59%
    18:00 +30°C° 0,1 mm 3 m/S 738 mmHg 64%
    19:00 +29°C° 0,1 mm 2 m/S 738 mmHg 70%
    20:00 +28°C° 0 mm 2 m/S 738 mmHg 74%
    21:00 +26°C° 0 mm 2 m/S 738 mmHg 79%
    22:00 +25°C° 0 mm 2 m/S 739 mmHg 83%
    23:00 +24°C° 0 mm 2 m/S 739 mmHg 85%
    Mehr zeigen